COSMOS 2522 (752)

Last updated on Wed Dec 17 2025 00:03:22 GMT+0000 (Coordinated Universal Time)

1 42939U 17055A 25350.11200134 .00000109 00000+0 00000+0 0 9990 2 42939 64.0761 198.1142 0006388 224.0896 135.9399 2.13102063 64079
UTC large
Height (km)
Speed (km/s)
/
Latitude / Longitude
Inclination (degrees)
Orbital Period (minutes)
Azimuth
Elevation
Range (km)
Doppler Factor

Next 0 passes for location: London (51.5072 / 0.1276)

Sorry there are no passes over London.